{"data":{"norad_id":58528,"intl_designator":"2023-191W","name":"STARLINK-31004","alt_names":[],"object_type":"PAYLOAD","status":"ACTIVE","operator":null,"country":"US","launch_date":"2023-12-07","launch_site_code":"AFETR","launch_vehicle":null,"mission":null,"orbit_class":"UNKNOWN","rcs_meters":null,"size_class":null,"mass_kg":null,"dimensions":null,"purposes":["comms"],"wikipedia_slug":null,"has_3d_model":false,"image_url":null,"decayed_at":null,"tle_current":{"epoch":"2026-05-25T01:36:07.727040Z","epoch_age_seconds":69399,"freshness":"FRESH","line1":"1 58528U 23191W   26145.06675610  .00001820  00000+0  75645-4 0  9994","line2":"2 58528  43.0035  31.9696 0000914 273.6982  86.3765 15.27580143137158","mean_motion":15.27580143,"eccentricity":9.14e-5,"inclination_deg":43.0035,"raan_deg":31.9696,"arg_perigee_deg":273.6982,"mean_anomaly_deg":86.3765,"bstar":7.5645e-5,"rev_number":13715,"period_min":94.266739889142,"perigee_km":482.4215554762,"apogee_km":483.67578021628,"semimajor_km":6861.1856678462,"source":"CELESTRAK","updated_at":"2026-05-25T13:38:18.659444Z"}}}